{"data":{"norad_id":53926,"intl_designator":"2022-119AS","name":"STARLINK-5014","alt_names":[],"object_type":"PAYLOAD","status":"ACTIVE","operator":null,"country":"US","launch_date":"2022-09-24","launch_site_code":"AFETR","launch_vehicle":null,"mission":null,"orbit_class":"UNKNOWN","rcs_meters":null,"size_class":null,"mass_kg":null,"dimensions":null,"purposes":["comms"],"wikipedia_slug":null,"has_3d_model":false,"image_url":null,"decayed_at":null,"tle_current":{"epoch":"2026-09-20T22:56:16.587456Z","epoch_age_seconds":47683,"freshness":"FRESH","line1":"1 53926U 22119AS  26263.95574754  .00000763  00000+0  36343-4 0  9993","line2":"2 53926  53.1615 116.3503 0001372  96.5532 263.5626 15.31709165221890","mean_motion":15.31709165,"eccentricity":0.0001372,"inclination_deg":53.1615,"raan_deg":116.3503,"arg_perigee_deg":96.5532,"mean_anomaly_deg":263.5626,"bstar":3.6343e-5,"rev_number":22189,"period_min":94.012625432061,"perigee_km":469.77301279838,"apogee_km":471.65233714919,"semimajor_km":6848.8496749738,"source":"CELESTRAK","updated_at":"2026-09-21T09:00:33.036512Z"}}}